Gastonia, NC

11:03 PM EDT on September 24, 2017 (GMT -0400)
Gastonia Municipal

Weather History for KAKH - March, 2013

Change the Weather History Date:

Monday, March 18, 2013

  Actual Average (KCLT) Record (KCLT)
Temperature  
Mean Temperature 42 °F -  
Max Temperature 46 °F 61 °F 85 °F (2011)
Min Temperature 39 °F 39 °F 21 °F (1967)
Degree Days  
Heating Degree Days 22    
Moisture  
Dew Point 40 °F    
Average Humidity 92    
Maximum Humidity 100    
Minimum Humidity 74    
Precipitation  
Precipitation 0.41 in - - ()
Sea Level Pressure  
Sea Level Pressure 30.03 in    
Wind  
Wind Speed 9 mph (NE)    
Max Wind Speed 15 mph    
Max Gust Speed 23 mph    
Visibility 5 miles    
Events Rain , Thunderstorm    
Averages and records for this station are not official NWS values.
T = Trace of Precipitation, MM = Missing Value Source: NWS Daily Summary

Daily Weather History Graph

Daily Weather History Graph

Search for Another Location

Airport or City:

Trip Planner

Search our weather history database for the weather conditions in past years. The results will help you decide how hot, cold, wet, or windy it might be!

Date:

Astronomy

Mar. 18, 2013 Rise Set
Actual Time 7:30 AM EDT 7:34 PM EDT
Civil Twilight 7:05 AM EDT 8:00 PM EDT
Nautical Twilight 6:35 AM EDT 8:29 PM EDT
Astronomical Twilight 6:06 AM EDT 8:59 PM EDT
Moon 11:41 AM EDT (3/18) 1:20 AM EDT (3/18)
Length of Visible Light 12h 54m
Length of Day
12h 04m
Waxing Crescent, 40% of the Moon is Illuminated
Mar 18
Waxing Crescent
Mar 19
First Quarter
Mar 27
Full
Apr 3
Last Quarter
Apr 10
New

Hourly Weather History & Observations

Time (EDT) Temp. Windchill Dew Point Humidity Pressure Visibility Wind Dir Wind Speed Gust Speed Precip Events Conditions
12:54 AM 46.9 °F - 39.0 °F 74% 30.08 in 9.0 mi NE 11.5 mph - N/A   Overcast
1:54 AM 46.0 °F 40.6 °F 39.0 °F 76% 30.09 in 8.0 mi NE 11.5 mph - N/A   Overcast
2:54 AM 45.0 °F 39.7 °F 39.0 °F 80% 30.09 in 8.0 mi NNE 10.4 mph - N/A   Overcast
3:54 AM 44.1 °F 38.1 °F 39.0 °F 82% 30.09 in 7.0 mi NE 11.5 mph - N/A   Overcast
4:54 AM 43.0 °F 37.2 °F 39.9 °F 89% 30.10 in 5.0 mi NNE 10.4 mph - N/A   Overcast
5:10 AM 42.8 °F 36.6 °F 41.0 °F 93% 30.10 in 3.0 mi NE 11.5 mph - 0.00 in Rain Light Rain
5:54 AM 42.1 °F 37.1 °F 39.9 °F 92% 30.11 in 6.0 mi NNE 8.1 mph - 0.00 in   Overcast
6:54 AM 41.0 °F 35.8 °F 39.0 °F 93% 30.13 in 9.0 mi NE 8.1 mph - N/A   Overcast
7:54 AM 41.0 °F 35.8 °F 39.9 °F 96% 30.13 in 4.0 mi NE 8.1 mph - 0.00 in   Overcast
8:07 AM 41.0 °F 36.4 °F 39.2 °F 93% 30.12 in 1.8 mi NE 6.9 mph - N/A   Overcast
8:54 AM 41.0 °F 34.7 °F 39.9 °F 96% 30.13 in 1.8 mi NE 10.4 mph - N/A   Overcast
9:09 AM 41.0 °F 35.8 °F 39.2 °F 93% 30.12 in 2.0 mi NE 8.1 mph - N/A   Overcast
9:25 AM 42.8 °F 38.6 °F 41.0 °F 93% 30.12 in 3.0 mi NE 6.9 mph - N/A   Overcast
9:54 AM 41.0 °F 35.8 °F 39.9 °F 96% 30.12 in 6.0 mi ENE 8.1 mph - N/A   Overcast
10:06 AM 41.0 °F 34.7 °F 39.2 °F 93% 30.11 in 6.0 mi ENE 10.4 mph - N/A   Overcast
10:54 AM 42.1 °F 38.4 °F 39.9 °F 92% 30.12 in 3.0 mi ENE 5.8 mph - N/A   Overcast
11:13 AM 41.0 °F 35.2 °F 39.2 °F 93% 30.11 in 2.5 mi NE 9.2 mph - N/A   Overcast
11:27 AM 41.0 °F 36.4 °F 39.2 °F 93% 30.11 in 2.0 mi NNE 6.9 mph - N/A   Overcast
11:54 AM 42.1 °F 37.7 °F 39.9 °F 92% 30.12 in 2.5 mi NE 6.9 mph - N/A   Overcast
12:18 PM 42.8 °F 38.6 °F 39.2 °F 87% 30.09 in 4.0 mi NE 6.9 mph - N/A   Overcast
12:39 PM 42.8 °F 37.5 °F 41.0 °F 93% 30.08 in 4.0 mi NE 9.2 mph - N/A   Overcast
12:54 PM 42.1 °F 37.1 °F 41.0 °F 96% 30.09 in 5.0 mi NE 8.1 mph - N/A   Overcast
1:54 PM 44.1 °F 40.8 °F 41.0 °F 89% 30.05 in 9.0 mi ENE 5.8 mph - N/A   Overcast
2:54 PM 44.1 °F 41.5 °F 41.0 °F 89% 30.01 in 6.0 mi East 4.6 mph - N/A   Overcast
3:54 PM 44.1 °F - 42.1 °F 93% 29.99 in 5.0 mi Calm Calm - N/A   Overcast
4:54 PM 44.1 °F 41.5 °F 43.0 °F 96% 29.97 in 2.5 mi NE 4.6 mph - 0.00 in Rain Light Rain
5:12 PM 44.6 °F 41.4 °F 42.8 °F 93% 29.96 in 1.2 mi Variable 5.8 mph - 0.01 in   Overcast
5:54 PM 44.1 °F 40.8 °F 43.0 °F 96% 29.95 in 2.0 mi NE 5.8 mph - 0.02 in Rain Light Rain
6:09 PM 44.6 °F 40.7 °F 42.8 °F 93% 29.93 in 3.0 mi NE 6.9 mph - 0.00 in Rain Light Rain
6:40 PM 44.6 °F 40.2 °F 42.8 °F 93% 29.97 in 5.0 mi NNW 8.1 mph - 0.00 in Thunderstorm Overcast
6:54 PM 43.0 °F 36.8 °F 42.1 °F 97% 29.96 in 7.0 mi North 11.5 mph 21.9 mph 0.00 in Rain , Thunderstorm Light Rain
7:13 PM 42.8 °F 37.5 °F 41.0 °F 93% 29.96 in 3.0 mi NNE 9.2 mph - 0.06 in Rain , Thunderstorm Thunderstorms and Rain
7:37 PM 42.8 °F 36.6 °F 39.2 °F 87% 29.98 in 5.0 mi North 11.5 mph 21.9 mph 0.12 in Rain Rain
7:54 PM 41.0 °F 33.1 °F 39.0 °F 93% 29.99 in 7.0 mi North 15.0 mph 23.0 mph 0.16 in Rain Light Rain
8:05 PM 41.0 °F 35.8 °F 39.2 °F 93% 29.99 in 5.0 mi NNE 8.1 mph 17.3 mph 0.03 in Rain Rain
8:27 PM 41.0 °F 35.2 °F 39.2 °F 93% 29.97 in 6.0 mi NE 9.2 mph - 0.09 in Rain Rain
8:43 PM 41.0 °F 38.0 °F 39.2 °F 93% 29.96 in 7.0 mi ENE 4.6 mph - 0.12 in Rain , Thunderstorm Rain
8:54 PM 41.0 °F 39.0 °F 39.9 °F 96% 29.98 in 10.0 mi ENE 3.5 mph - 0.13 in Rain , Thunderstorm Light Rain
9:30 PM 39.2 °F 37.0 °F 39.2 °F 100% 29.93 in 5.0 mi SE 3.5 mph - 0.09 in Rain Rain
9:50 PM 39.2 °F 34.2 °F 39.2 °F 100% 29.88 in 10.0 mi East 6.9 mph - 0.10 in Rain Light Rain
9:54 PM 39.9 °F 37.8 °F 39.9 °F 100% 29.90 in 10.0 mi East 3.5 mph - 0.10 in   Mostly Cloudy
10:01 PM 39.2 °F 35.9 °F 39.2 °F 100% 29.89 in 10.0 mi SE 4.6 mph - N/A   Overcast
10:54 PM 41.0 °F 38.0 °F 41.0 °F 100% 29.88 in 6.0 mi Variable 4.6 mph - N/A   Overcast
11:54 PM 42.1 °F - 41.0 °F 96% 29.91 in 6.0 mi Calm Calm - N/A   Overcast